• In Moldova, Republic
  • List of Countries
  • For 7 days
  • Water Temperature
  • Satellite Maps
  • Weather Map
  • Weather Widgets
  • user-avatar
    Login

    Hourly Weather Nakhchivan

    Today, 22 August, Tuesday

    Time Temperature Precipitation Wind Pressure Humidity
    00:00 +29°C° 0 mm 2 mps 686 mmHg 42%
    01:00 +29°C° 0 mm 2 mps 685 mmHg 43%
    02:00 +28°C° 0 mm 2 mps 685 mmHg 44%
    03:00 +28°C° 0 mm 2 mps 685 mmHg 41%
    04:00 +28°C° 0 mm 2 mps 685 mmHg 41%
    05:00 +28°C° 0 mm 1 mps 685 mmHg 42%
    06:00 +28°C° 0 mm 1 mps 686 mmHg 42%
    07:00 +29°C° 0 mm 1 mps 686 mmHg 37%
    08:00 +31°C° 0 mm 1 mps 686 mmHg 32%
    09:00 +33°C° 0 mm 1 mps 686 mmHg 26%
    10:00 +35°C° 0 mm 2 mps 686 mmHg 23%
    11:00 +37°C° 0 mm 2 mps 686 mmHg 19%
    12:00 +38°C° 0 mm 2 mps 686 mmHg 16%
    13:00 +39°C° 0 mm 2 mps 686 mmHg 15%
    14:00 +39°C° 0 mm 3 mps 685 mmHg 14%
    15:00 +40°C° 0 mm 3 mps 685 mmHg 13%
    16:00 +39°C° 0 mm 3 mps 685 mmHg 14%
    17:00 +39°C° 0 mm 3 mps 684 mmHg 15%
    18:00 +38°C° 0 mm 4 mps 684 mmHg 17%
    19:00 +36°C° 0 mm 3 mps 684 mmHg 21%
    20:00 +35°C° 0 mm 3 mps 684 mmHg 26%
    21:00 +32°C° 0 mm 2 mps 684 mmHg 30%
    22:00 +31°C° 0 mm 2 mps 684 mmHg 32%
    23:00 +30°C° 0 mm 2 mps 685 mmHg 35%

    Tomorrow, 23 August, Wednesday

    Time Temperature Precipitation Wind Pressure Humidity
    00:00 +30°C° 0 mm 2 mps 685 mmHg 37%
    01:00 +29°C° 0 mm 2 mps 684 mmHg 38%
    02:00 +28°C° 0 mm 2 mps 684 mmHg 40%
    03:00 +28°C° 0 mm 2 mps 684 mmHg 41%
    04:00 +28°C° 0 mm 1 mps 685 mmHg 41%
    05:00 +28°C° 0 mm 1 mps 685 mmHg 41%
    06:00 +27°C° 0 mm 1 mps 685 mmHg 42%
    07:00 +29°C° 0 mm 1 mps 685 mmHg 37%
    08:00 +31°C° 0 mm 1 mps 686 mmHg 32%
    09:00 +33°C° 0 mm 1 mps 686 mmHg 26%
    10:00 +36°C° 0 mm 2 mps 686 mmHg 23%
    11:00 +37°C° 0 mm 3 mps 686 mmHg 20%
    12:00 +39°C° 0 mm 3 mps 686 mmHg 17%
    13:00 +40°C° 0 mm 4 mps 686 mmHg 16%
    14:00 +41°C° 0 mm 4 mps 685 mmHg 15%
    15:00 +42°C° 0 mm 4 mps 685 mmHg 14%
    16:00 +41°C° 0 mm 4 mps 685 mmHg 16%
    17:00 +40°C° 0 mm 4 mps 685 mmHg 18%
    18:00 +39°C° 0 mm 5 mps 685 mmHg 20%
    19:00 +37°C° 0 mm 4 mps 685 mmHg 24%
    20:00 +35°C° 0 mm 4 mps 686 mmHg 29%
    21:00 +33°C° 0 mm 3 mps 686 mmHg 33%
    22:00 +31°C° 0 mm 3 mps 686 mmHg 35%
    23:00 +30°C° 0 mm 3 mps 686 mmHg 37%

    Day after tomorrow, 24 August, Thursday

    Time Temperature Precipitation Wind Pressure Humidity
    00:00 +30°C° 0 mm 2 mps 687 mmHg 39%
    01:00 +29°C° 0 mm 2 mps 687 mmHg 40%
    02:00 +28°C° 0 mm 2 mps 687 mmHg 41%
    03:00 +28°C° 0 mm 2 mps 687 mmHg 42%
    04:00 +27°C° 0 mm 2 mps 687 mmHg 43%
    05:00 +27°C° 0 mm 2 mps 687 mmHg 43%
    06:00 +27°C° 0 mm 2 mps 688 mmHg 44%
    07:00 +29°C° 0 mm 2 mps 688 mmHg 39%
    08:00 +30°C° 0 mm 2 mps 688 mmHg 35%
    09:00 +32°C° 0 mm 2 mps 688 mmHg 30%
    10:00 +34°C° 0 mm 2 mps 688 mmHg 27%
    11:00 +36°C° 0 mm 3 mps 688 mmHg 24%
    12:00 +37°C° 0 mm 3 mps 688 mmHg 21%
    13:00 +38°C° 0 mm 3 mps 688 mmHg 19%
    14:00 +40°C° 0 mm 4 mps 687 mmHg 18%
    15:00 +41°C° 0 mm 5 mps 687 mmHg 16%
    16:00 +40°C° 0 mm 5 mps 687 mmHg 18%
    17:00 +39°C° 0 mm 5 mps 687 mmHg 20%
    18:00 +38°C° 0 mm 6 mps 687 mmHg 21%
    19:00 +36°C° 0 mm 5 mps 687 mmHg 24%
    20:00 +34°C° 0 mm 4 mps 687 mmHg 27%
    21:00 +31°C° 0 mm 3 mps 688 mmHg 30%
    22:00 +31°C° 0 mm 3 mps 688 mmHg 31%
    23:00 +30°C° 0 mm 2 mps 688 mmHg 31%

    25 August, Friday

    Time Temperature Precipitation Wind Pressure Humidity
    00:00 +29°C° 0 mm 2 mps 688 mmHg 32%
    01:00 +28°C° 0 mm 2 mps 688 mmHg 32%
    02:00 +28°C° 0 mm 2 mps 688 mmHg 32%
    03:00 +27°C° 0 mm 2 mps 688 mmHg 33%
    04:00 +27°C° 0 mm 2 mps 688 mmHg 33%
    05:00 +27°C° 0 mm 2 mps 688 mmHg 33%
    06:00 +27°C° 0 mm 2 mps 689 mmHg 33%
    07:00 +29°C° 0 mm 2 mps 689 mmHg 29%
    08:00 +30°C° 0 mm 2 mps 689 mmHg 25%
    09:00 +32°C° 0 mm 2 mps 689 mmHg 22%
    10:00 +34°C° 0 mm 2 mps 689 mmHg 20%
    11:00 +36°C° 0 mm 2 mps 689 mmHg 18%
    12:00 +37°C° 0 mm 2 mps 688 mmHg 16%
    13:00 +38°C° 0 mm 3 mps 688 mmHg 15%
    14:00 +38°C° 0 mm 4 mps 688 mmHg 14%
    15:00 +40°C° 0 mm 4 mps 687 mmHg 13%
    16:00 +38°C° 0 mm 4 mps 687 mmHg 14%
    17:00 +39°C° 0 mm 5 mps 687 mmHg 15%
    18:00 +37°C° 0 mm 5 mps 687 mmHg 16%
    19:00 +35°C° 0 mm 4 mps 687 mmHg 18%
    20:00 +33°C° 0 mm 4 mps 688 mmHg 20%
    21:00 +30°C° 0 mm 3 mps 688 mmHg 22%
    22:00 +30°C° 0 mm 3 mps 688 mmHg 23%
    23:00 +29°C° 0 mm 2 mps 688 mmHg 24%

    26 August, Saturday

    Time Temperature Precipitation Wind Pressure Humidity
    00:00 +28°C° 0 mm 2 mps 688 mmHg 25%
    01:00 +27°C° 0 mm 2 mps 688 mmHg 26%
    02:00 +27°C° 0 mm 2 mps 688 mmHg 28%
    03:00 +26°C° 0 mm 2 mps 688 mmHg 29%
    04:00 +26°C° 0 mm 2 mps 688 mmHg 30%
    05:00 +26°C° 0 mm 2 mps 688 mmHg 31%
    06:00 +25°C° 0 mm 2 mps 688 mmHg 32%
    07:00 +27°C° 0 mm 2 mps 688 mmHg 28%
    08:00 +29°C° 0 mm 2 mps 688 mmHg 25%
    09:00 +31°C° 0 mm 2 mps 689 mmHg 21%
    10:00 +32°C° 0 mm 2 mps 688 mmHg 20%
    11:00 +34°C° 0 mm 2 mps 688 mmHg 18%
    12:00 +35°C° 0 mm 2 mps 688 mmHg 16%
    13:00 +36°C° 0 mm 3 mps 687 mmHg 16%
    14:00 +37°C° 0 mm 3 mps 687 mmHg 15%
    15:00 +37°C° 0 mm 4 mps 687 mmHg 14%
    16:00 +37°C° 0 mm 4 mps 687 mmHg 16%
    17:00 +36°C° 0 mm 4 mps 686 mmHg 17%
    18:00 +35°C° 0 mm 5 mps 686 mmHg 18%
    19:00 +34°C° 0 mm 4 mps 687 mmHg 20%
    20:00 +31°C° 0 mm 3 mps 687 mmHg 23%
    21:00 +29°C° 0 mm 3 mps 687 mmHg 25%
    22:00 +29°C° 0 mm 3 mps 687 mmHg 26%
    23:00 +28°C° 0 mm 2 mps 687 mmHg 28%

    27 August, Sunday

    Time Temperature Precipitation Wind Pressure Humidity
    00:00 +27°C° 0 mm 2 mps 687 mmHg 29%
    01:00 +26°C° 0 mm 2 mps 687 mmHg 30%
    02:00 +26°C° 0 mm 2 mps 687 mmHg 31%
    03:00 +25°C° 0 mm 2 mps 687 mmHg 32%
    04:00 +25°C° 0 mm 2 mps 687 mmHg 32%
    05:00 +25°C° 0 mm 2 mps 687 mmHg 32%
    06:00 +25°C° 0 mm 2 mps 687 mmHg 33%
    07:00 +26°C° 0 mm 2 mps 687 mmHg 29%
    08:00 +28°C° 0 mm 2 mps 688 mmHg 25%
    09:00 +30°C° 0 mm 2 mps 688 mmHg 21%
    10:00 +31°C° 0 mm 2 mps 687 mmHg 19%
    11:00 +32°C° 0 mm 2 mps 687 mmHg 17%
    12:00 +34°C° 0 mm 2 mps 687 mmHg 15%
    13:00 +35°C° 0 mm 3 mps 686 mmHg 15%
    14:00 +36°C° 0 mm 3 mps 686 mmHg 14%
    15:00 +37°C° 0 mm 3 mps 686 mmHg 14%
    16:00 +36°C° 0 mm 4 mps 686 mmHg 15%
    17:00 +35°C° 0 mm 4 mps 686 mmHg 16%
    18:00 +34°C° 0 mm 4 mps 686 mmHg 17%
    19:00 +33°C° 0 mm 4 mps 686 mmHg 20%
    20:00 +30°C° 0 mm 3 mps 686 mmHg 23%
    21:00 +29°C° 0 mm 2 mps 686 mmHg 26%
    22:00 +28°C° 0 mm 2 mps 686 mmHg 28%
    23:00 +27°C° 0 mm 2 mps 686 mmHg 30%
    Show more